This demonstration page uses our WeatherBlox Daily Observations layout. Learn more.

Left ArrowRight Arrow

34.74481, -87.66753

Hourly Observations for May 7, 2019

Temp ( °F °C ) Dew Point ( °F °C ) Humidity (%) Winds ( mph kmh ) Pressure ( in mb ) Visibility ( mi km ) Precip ( " mm )
12:53 am 00:53 Clear 60 15.6 57 13.9 90 90 Calm 30.04 1017 10 16 0.00 0.00
1:53 am 01:53 Clear 60 15.6 57 13.9 90 90 Calm 30.05 1018 10 16 0.00 0.00
2:53 am 02:53 Clear 59 15 57 13.9 93 93 Calm 30.06 1018 10 16 0.00 0.00
3:53 am 03:53 Clear 58 14.4 56 13.3 93 93 Calm 30.06 1018 10 16 0.00 0.00
4:53 am 04:53 Clear 56 13.3 54 12.2 93 93 Calm 30.07 1018 10 16 0.00 0.00
5:53 am 05:53 Clear 58 14.4 56 13.3 93 93 Calm 30.09 1019 10 16 0.00 0.00
6:21 am 06:21 Sunny with Mist and Fog 57 13.9 55 12.8 93 93 Calm 30.11 1020 2 3 0.00 0.00
6:33 am 06:33 Sunny with Mist and Fog 58 14.4 56 13.3 93 93 Calm 30.11 1020 3 5 0.00 0.00
6:53 am 06:53 Sunny 61 16.1 58 14.4 90 90 Calm 30.11 1020 10 16 0.00 0.00
7:53 am 07:53 Sunny 65 18.3 61 16.1 87 87 Calm 30.13 1020 10 16 0.00 0.00
8:53 am 08:53 Sunny 70 21.1 59 15 68 68 Calm 30.14 1021 10 16 0.00 0.00
9:53 am 09:53 Sunny 76 24.4 60 15.6 58 58 W 3 6 30.14 1021 10 16 0.00 0.00
10:53 am 10:53 Sunny 78 25.6 60 15.6 54 54 Calm 30.14 1021 10 16 0.00 0.00
11:53 am 11:53 Sunny 80 26.7 57 13.9 45 45 VRB 5 7 30.12 1020 10 16 0.00 0.00
12:53 pm 12:53 Sunny 81 27.2 56 13.3 42 42 VRB 3 6 30.11 1020 10 16 0.00 0.00
1:53 pm 13:53 Sunny 83 28.3 58 14.4 43 43 E 3 6 30.09 1019 10 16 0.00 0.00
2:53 pm 14:53 Sunny 83 28.3 56 13.3 40 40 Calm 30.08 1019 10 16 0.00 0.00
3:53 pm 15:53 Sunny 84 28.9 59 15 43 43 WSW 5 7 30.06 1018 10 16 0.00 0.00
4:53 pm 16:53 Sunny 84 28.9 58 14.4 41 41 Calm 30.05 1018 10 16 0.00 0.00
5:53 pm 17:53 Sunny 84 28.9 60 15.6 44 44 Calm 30.04 1017 10 16 0.00 0.00
6:53 pm 18:53 Sunny 80 26.7 62 16.7 54 54 ESE 5 7 30.03 1017 10 16 0.00 0.00
7:53 pm 19:53 Clear 74 23.3 63 17.2 69 69 E 6 9 30.04 1017 10 16 0.00 0.00
8:53 pm 20:53 Clear 72 22.2 61 16.1 68 68 E 6 9 30.05 1018 10 16 0.00 0.00
9:53 pm 21:53 Clear 69 20.6 62 16.7 78 78 SE 3 6 30.06 1018 10 16 0.00 0.00
10:53 pm 22:53 Clear 67 19.4 62 16.7 84 84 Calm 30.06 1018 10 16 0.00 0.00
11:53 pm 23:53 Clear 66 18.9 62 16.7 87 87 Calm 30.05 1018 10 16 0.00 0.00

Powered by AerisWeather